TimeAKDT,TemperatureF,Dew PointF,Humidity,Sea Level PressureIn,VisibilityMPH,Wind Direction,Wind SpeedMPH,Gust SpeedMPH,PrecipitationIn,Events,Conditions,WindDirDegrees,DateUTC
12:53 AM,3.0,-0.9,84,29.79,10.0,Calm,Calm,-,N/A,,Clear,0,2012-10-12 08:53:00
1:53 AM,1.9,-2.0,83,29.78,10.0,Calm,Calm,-,N/A,,Clear,0,2012-10-12 09:53:00
2:53 AM,1.0,-2.9,83,29.75,10.0,Calm,Calm,-,N/A,,Clear,0,2012-10-12 10:53:00
3:53 AM,1.0,-4.0,79,29.73,10.0,Calm,Calm,-,N/A,,Clear,0,2012-10-12 11:53:00
4:53 AM,3.0,-2.0,80,29.71,10.0,Calm,Calm,-,N/A,,Mostly Cloudy,0,2012-10-12 12:53:00
5:49 AM,8.6,3.2,79,29.65,10.0,Calm,Calm,-,N/A,,Overcast,0,2012-10-12 13:49:00
5:53 AM,8.1,3.9,83,29.70,10.0,Calm,Calm,-,N/A,,Overcast,0,2012-10-12 13:53:00
6:51 AM,10.4,6.8,85,29.63,10.0,Calm,Calm,-,N/A,,Overcast,0,2012-10-12 14:51:00
6:53 AM,10.9,7.0,84,29.69,10.0,Calm,Calm,-,N/A,,Overcast,0,2012-10-12 14:53:00
7:07 AM,10.4,6.8,85,29.63,10.0,Calm,Calm,-,N/A,,Overcast,0,2012-10-12 15:07:00
7:35 AM,12.2,8.6,85,29.63,10.0,Calm,Calm,-,N/A,,Overcast,0,2012-10-12 15:35:00
7:53 AM,12.0,8.1,84,29.68,10.0,Calm,Calm,-,N/A,,Overcast,0,2012-10-12 15:53:00
8:53 AM,14.0,10.0,84,29.67,10.0,Calm,Calm,-,N/A,,Overcast,0,2012-10-12 16:53:00
9:53 AM,15.1,10.9,84,29.65,10.0,Calm,Calm,-,N/A,,Overcast,0,2012-10-12 17:53:00
10:36 AM,15.8,10.4,79,29.59,10.0,Calm,Calm,-,N/A,,Overcast,0,2012-10-12 18:36:00
10:53 AM,16.0,10.9,81,29.65,10.0,Calm,Calm,-,N/A,,Overcast,0,2012-10-12 18:53:00
11:53 AM,17.1,12.0,81,29.64,10.0,Calm,Calm,-,N/A,,Overcast,0,2012-10-12 19:53:00
12:53 PM,18.0,12.0,78,29.62,10.0,Calm,Calm,-,N/A,,Overcast,0,2012-10-12 20:53:00
1:53 PM,19.0,12.0,74,29.61,10.0,Calm,Calm,-,N/A,,Overcast,0,2012-10-12 21:53:00
2:53 PM,19.0,12.9,77,29.60,10.0,Calm,Calm,-,N/A,,Overcast,0,2012-10-12 22:53:00
3:53 PM,19.9,12.9,74,29.59,10.0,Calm,Calm,-,N/A,,Overcast,0,2012-10-12 23:53:00
4:53 PM,19.9,12.9,74,29.57,10.0,Calm,Calm,-,N/A,,Overcast,0,2012-10-13 00:53:00
5:53 PM,19.9,12.9,74,29.57,9.0,Calm,Calm,-,N/A,,Overcast,0,2012-10-13 01:53:00
6:53 PM,19.0,12.9,77,29.56,10.0,Calm,Calm,-,N/A,,Overcast,0,2012-10-13 02:53:00
7:53 PM,18.0,12.9,81,29.56,10.0,Calm,Calm,-,N/A,,Overcast,0,2012-10-13 03:53:00
8:22 PM,17.6,12.2,79,29.50,10.0,Calm,Calm,-,N/A,,Overcast,0,2012-10-13 04:22:00
10:06 PM,19.4,12.2,74,29.50,10.0,Calm,Calm,-,N/A,,Overcast,0,2012-10-13 06:06:00
10:53 PM,19.9,12.9,74,29.55,10.0,Calm,Calm,-,N/A,,Overcast,0,2012-10-13 06:53:00
11:53 PM,19.0,12.9,77,29.54,10.0,Calm,Calm,-,N/A,,Overcast,0,2012-10-13 07:53:00